This demonstration page uses our WeatherBlox Daily Observations layout. Learn more.

Left ArrowRight Arrow

Hourly Observations for May 6, 2018

Temp ( °F °C ) Dew Point ( °F °C ) Humidity (%) Winds ( mph kmh ) Pressure ( in mb ) Visibility ( mi km ) Precip ( " mm )
12:15 am 00:15 Clear 58 14.6 41 5.2 54 54 Calm 30.03 1017 10 16.0934 0 0
12:35 am 00:35 Clear 56 13.5 42 5.4 58 58 NNE 3 6 30.03 1017 10 16.0934 0 0
12:55 am 00:55 Clear 59 14.8 41 5.2 53 53 N 8 13 30.06 1018 10 16.0934 0 0
1:15 am 01:15 Clear 54 12 42 5.3 64 64 N 7 11 30.09 1019 10 16.0934 0 0
1:35 am 01:35 Clear 55 13 42 5.7 61 61 N 7 11 30.09 1019 10 16.0934 0 0
1:55 am 01:55 Clear 56 13.2 42 5.5 60 60 Calm 30.09 1019 10 16.0934 0 0
2:15 am 02:15 Clear 56 13.6 42 5.8 60 60 Calm 30.06 1018 10 16.0934 0 0
2:35 am 02:35 Clear 54 12.1 42 5.7 65 65 Calm 30.09 1019 10 16.0934 0 0
2:55 am 02:55 Clear 52 11 42 5.7 70 70 NW 6 9 30.09 1019 10 16.0934 0 0
3:15 am 03:15 Clear 51 10.8 43 6 72 72 N 7 11 30.09 1019 10 16.0934 0 0
3:35 am 03:35 Partly Cloudy 53 11.6 44 6.5 71 71 NNW 8 13 30.12 1020 10 16.0934 0 0
3:55 am 03:55 Partly Cloudy 55 12.6 44 6.6 67 67 N 8 13 30.12 1020 10 16.0934 0 0
4:15 am 04:15 Clear 52 11 43 6.1 72 72 N 6 9 30.09 1019 10 16.0934 0 0
4:35 am 04:35 Clear 52 10.9 43 6 72 72 NNW 5 7 30.09 1019 10 16.0934 0 0
4:55 am 04:55 Clear 54 12.1 44 6.4 68 68 N 8 13 30.12 1020 10 16.0934 0 0
5:15 am 05:15 Clear 50 10.2 43 6 75 75 N 7 11 30.15 1021 10 16.0934 0 0
5:35 am 05:35 Clear 53 11.4 44 6.5 72 72 N 5 7 30.12 1020 7 11.26538 0 0
5:55 am 05:55 Clear 52 11 43 6.3 73 73 NW 5 7 30.12 1020 10 16.0934 0 0
6:15 am 06:15 Clear 51 10.3 44 6.4 77 77 NW 6 9 30.15 1021 10 16.0934 0 0
6:35 am 06:35 Sunny 51 10.6 44 6.5 76 76 WNW 5 7 30.12 1020 10 16.0934 0 0
6:55 am 06:55 Sunny 50 10.1 43 6.2 77 77 NW 6 9 30.15 1021 10 16.0934 0 0
7:15 am 07:15 Sunny 50 10.1 44 6.5 79 79 NW 6 9 30.15 1021 10 16.0934 0 0
7:35 am 07:35 Sunny 51 10.8 45 7 78 78 NW 5 7 30.12 1020 10 16.0934 0 0
7:55 am 07:55 Sunny 56 13.3 46 7.6 69 69 NNW 8 13 30.12 1020 10 16.0934 0 0
8:15 am 08:15 Sunny 59 15.2 47 8.1 63 63 NNW 8 13 30.09 1019 10 16.0934 0 0
8:35 am 08:35 Sunny 64 17.6 47 8.4 55 55 N 7 11 30.06 1018 10 16.0934 0 0
8:55 am 08:55 Sunny 66 18.8 46 8 50 50 N 12 19 30.06 1018 10 16.0934 0 0
9:15 am 09:15 Sunny 69 20.5 46 7.7 44 44 N 12 19 30.06 1018 10 16.0934 0 0
9:35 am 09:35 Sunny 71 21.5 45 7 39 39 N 13 20 30.03 1017 10 16.0934 0 0
9:55 am 09:55 Sunny 71 21.6 46 7.6 41 41 N 13 20 30.03 1017 10 16.0934 0 0
10:15 am 10:15 Sunny 73 22.5 46 8 39 39 N 12 19 30.03 1017 10 16.0934 0 0
10:35 am 10:35 Sunny 74 23.6 46 7.7 36 36 N 13 20 30.06 1018 10 16.0934 0 0
10:55 am 10:55 Sunny 75 24 46 7.6 35 35 N 9 15 30.06 1018 10 16.0934 0 0
11:15 am 11:15 Sunny 76 24.6 45 7.1 33 33 N 13 20 30.06 1018 10 16.0934 0 0
11:35 am 11:35 Sunny 77 25 45 7.4 33 33 N 10 17 30.03 1017 10 16.0934 0 0
11:55 am 11:55 Sunny 78 25.4 45 7.4 32 32 N 10 17 30.03 1017 10 16.0934 0 0
12:15 pm 12:15 Sunny 79 26 44 6.8 29 29 NNE 9 15 30.03 1017 10 16.0934 0 0
12:35 pm 12:35 Sunny 80 26.4 44 6.9 29 29 NNE 13 20 30.03 1017 10 16.0934 0 0
12:55 pm 12:55 Sunny 80 26.5 44 6.8 29 29 NNE 10 17 30.03 1017 10 16.0934 0 0
1:15 pm 13:15 Sunny 80 26.6 45 7.1 29 29 NNE 14 22 30 1016 10 16.0934 0 0
1:35 pm 13:35 Sunny 80 26.4 45 7.1 29 29 NE 17 28 30 1016 10 16.0934 0 0
1:55 pm 13:55 Sunny 79 26.1 45 7.2 30 30 NNE 14 22 30 1016 10 16.0934 0 0
2:15 pm 14:15 Sunny 79 26 45 7.2 30 30 ENE 13 20 30 1016 10 16.0934 0 0
2:35 pm 14:35 Sunny 78 25.5 45 7.4 32 32 NE 12 19 30 1016 10 16.0934 0 0
2:55 pm 14:55 Sunny 78 25.6 46 7.8 32 32 NE 10 17 30 1016 10 16.0934 0 0
3:15 pm 15:15 Sunny 78 25.7 46 7.5 31 31 NE 10 17 30 1016 10 16.0934 0 0
3:35 pm 15:35 Sunny 78 25.8 44 6.8 30 30 NE 16 26 30.03 1017 10 16.0934 0 0
3:55 pm 15:55 Sunny 78 25.5 45 7.3 31 31 NNE 13 20 30.03 1017 10 16.0934 0 0
4:15 pm 16:15 Sunny 78 25.6 46 7.6 32 32 NNE 15 24 30 1016 10 16.0934 0 0
4:35 pm 16:35 Sunny 77 25 44 6.8 31 31 NE 14 22 30 1016 10 16.0934 0 0
4:55 pm 16:55 Mostly Cloudy 75 24.1 45 7.2 34 34 NNE 14 22 30.03 1017 10 16.0934 0 0
5:15 pm 17:15 Partly Cloudy 75 23.9 46 7.8 36 36 ENE 13 20 30.03 1017 10 16.0934 0 0
5:35 pm 17:35 Sunny 75 24 46 7.8 36 36 ENE 8 13 30.03 1017 10 16.0934 0 0
5:55 pm 17:55 Sunny 75 24.1 45 7 33 33 NE 14 22 30.03 1017 10 16.0934 0 0
6:15 pm 18:15 Partly Cloudy 75 24 45 7.1 34 34 NE 14 22 30.03 1017 10 16.0934 0 0
6:35 pm 18:35 Cloudy 74 23.5 45 7 35 35 NE 14 22 30.06 1018 10 16.0934 0 0
6:55 pm 18:55 Cloudy 74 23.4 44 6.8 34 34 NNE 9 15 30.03 1017 10 16.0934 0 0
7:15 pm 19:15 Partly Cloudy 74 23.2 44 6.7 35 35 NE 15 24 30.03 1017 10 16.0934 0 0
7:35 pm 19:35 Sunny 73 23 44 6.7 35 35 NE 14 22 30.03 1017 10 16.0934 0 0
7:55 pm 19:55 Sunny 72 22.3 44 6.6 36 36 NE 10 17 30.03 1017 10 16.0934 0 0
8:15 pm 20:15 Sunny 70 21.2 43 6.3 38 38 ENE 8 13 30.03 1017 10 16.0934 0 0
8:35 pm 20:35 Hazy 69 20.8 44 6.5 40 40 E 5 7 30.03 1017 5 8.0467 0 0
8:55 pm 20:55 Partly Cloudy 67 19.4 44 6.4 43 43 E 3 6 30.06 1018 10 16.0934 0 0
9:15 pm 21:15 Partly Cloudy 64 17.9 44 6.7 48 48 Calm 30.06 1018 10 16.0934 0 0
9:35 pm 21:35 Clear 62 16.9 44 6.4 50 50 ENE 6 9 30.09 1019 10 16.0934 0 0
9:55 pm 21:55 Clear 63 17.1 43 6.2 49 49 E 6 9 30.09 1019 10 16.0934 0 0
10:15 pm 22:15 Clear 61 15.9 43 6.3 53 53 E 6 9 30.12 1020 10 16.0934 0 0
10:35 pm 22:35 Clear 59 15.1 44 6.4 56 56 E 5 7 30.12 1020 10 16.0934 0 0
10:55 pm 22:55 Clear 58 14.5 43 6.1 57 57 Calm 30.12 1020 10 16.0934 0 0
11:15 pm 23:15 Clear 58 14.7 43 6.2 57 57 Calm 30.12 1020 10 16.0934 0 0
11:35 pm 23:35 Clear 56 13.6 43 5.9 60 60 Calm 30.15 1021 10 16.0934 0 0
11:55 pm 23:55 Clear 53 11.6 41 5.2 65 65 ENE 3 6 30.15 1021 10 16.0934 0 0

Powered by AerisWeather